Flag for Brazil Weather past 2 weeks in Belém, Para, Brazil

Now
75 °F

Sunny.


Feels Like: 74 °F
Forecast: 74 / 89 °F
Wind: 3 mph from East

Location: Belem Aeroporto

Current Time: Oct 1, 2014 at 8:08:53 AM

Latest Report: Oct 1, 2014 at 7:00 AM


Visibility: 10 mi

Pressure: 29.92 "Hg

Humidity: 94%

Dew point: 73 °F

Location of BelémLocation

Historic Weather in Belém — Graph

°F

Belém temperature yesterday

Maximum temperature yesterday: 88 °F (at 12:00 PM)
Minimum temperature yesterday: 75 °F (at 1:00 AM)
Average temperature yesterday: 80 °F

Past Weeks' High & Low Weather Summary

 TemperatureHumidityPressure
High91 °F (Sep 28, 2:00 PM)100% (Sep 16, 7:00 AM)29.98 "Hg (Sep 16, 7:00 AM)
Low36 °F (Sep 18, 4:00 PM)49% (Sep 28, 2:00 PM)29.80 "Hg (Sep 17, 4:00 PM)
Average79 °F81%29.89 "Hg
* Reported Sep 16 7:00 AM — Oct 1 7:00 AM, Belém, Weather by CustomWeather, © 2014

Note: Actual official high and low records may vary slightly from our data, if they occured in-between our weather recording intervals... More about our weather records

Advertising

Belém weather history for previous 24 hours

 ConditionsComfort  
Time TempWeatherWind HumidityBarometerVisibility
7:00 AM
Oct 1
75 °FSunny.3 mph94%29.92 "Hg10 mi
6:00 AM73 °FSunny.3 mph94%29.89 "Hg10 mi
5:00 AM75 °FClear.1 mph89%29.89 "Hg10 mi
4:00 AM75 °FClear.1 mph89%29.89 "Hg10 mi
3:00 AM75 °FClear.No wind89%29.89 "Hg10 mi
2:00 AM75 °FClear.2 mph89%29.89 "Hg10 mi
1:00 AM75 °FClear.2 mph89%29.92 "Hg10 mi
12:00 AM77 °FClear.6 mph83%29.92 "Hg10 mi
11:00 PM
Sep 30
77 °FClear.12 mph83%29.92 "Hg10 mi
10:00 PM79 °FClear.13 mph79%29.92 "Hg10 mi
9:00 PM79 °FClear.16 mph79%29.92 "Hg10 mi
8:00 PM81 °FPassing clouds.9 mph74%29.92 "HgN/A
7:00 PM82 °FPassing clouds.7 mph74%29.89 "HgN/A
6:00 PM84 °FScattered clouds.5 mph70%29.86 "HgN/A
5:00 PM84 °FScattered clouds.12 mph74%29.86 "HgN/A
4:00 PM82 °FPartly sunny.12 mph79%29.86 "HgN/A
3:00 PM84 °FPartly sunny.12 mph74%29.92 "HgN/A
2:00 PM84 °FPartly sunny.14 mph74%29.89 "HgN/A
1:00 PM86 °FPartly sunny.12 mph70%29.92 "HgN/A
12:00 PM88 °FPartly sunny.12 mph59%29.95 "HgN/A
11:00 AM86 °FBroken clouds.10 mph62%29.98 "HgN/A
10:00 AM84 °FPartly sunny.12 mph66%29.98 "HgN/A
9:00 AM82 °FScattered clouds.12 mph74%29.98 "HgN/A
8:00 AM79 °FSunny.8 mph84%29.95 "Hg10 mi
Weather by CustomWeather, © 2014

See weather overviewHow to use our weather pages